Terminal Aerodrome Forecast
Issued by NWS

Home | Current Version | Previous Version | Text Only | Print | Product List | Glossary On
Versions: 1 2 3 4 5 6 7 8 9 10 11 12 13 14 15 16 17 18 19 20 21 22 23 24 25 26 27 28 29 30 31 32 33 34 35 36 37 38 39
921
FTAK31 PANC 261134
TAFAEN
TAF
PAEN 261134Z 2612/2712 02005KT 2SM BR SCT002 BKN120
      TEMPO 2612/2615 1/4SM FZFG BKN002
     FM261500 19006KT P6SM VCFG FEW003 BKN100
      TEMPO 2615/2618 2SM BR SCT003
     FM262000 VRB04KT P6SM SCT100 BKN200
     FM270600 02005KT P6SM VCFG FEW003 BKN100=

USA.gov is the U.S. government's official web portal to all federal, state and local government web resources and services.